{"data":{"norad_id":59639,"epoch":"2026-09-21T21:10:31.857888Z","epoch_age_seconds":48638,"freshness":"FRESH","line1":"1 59639U 24082J   26264.88231317  .00000014  00000+0  10028-4 0  9990","line2":"2 59639  42.9986 112.1110 0000473 255.0183 105.0616 15.27576491134810","mean_motion":15.27576491,"eccentricity":4.73e-5,"inclination_deg":42.9986,"raan_deg":112.111,"arg_perigee_deg":255.0183,"mean_anomaly_deg":105.0616,"bstar":1.0028e-5,"rev_number":13481,"period_min":94.26696525405,"perigee_km":482.73506866879,"apogee_km":483.38413786746,"semimajor_km":6861.1966032681,"source":"CELESTRAK","updated_at":"2026-09-22T09:00:49.019013Z"}}